User: anonymous   Login
Location: Unspecified
(0.0000°N, 0.0000°E)
Time: 21:32:12
(UTC+00:00)
Language:

NORSAT 1 - Orbit

View from above orbital plane
View from above orbital plane
View from above satellite
View from above satellite

Ground track
Ground track

The orbit is defined by the following mean orbital elements,

1 42826U          26145.47000235 +.00000000 +00000-0 +36535-3 0 00009
2 42826  97.4432 313.7010 0007924 152.3761 207.7893 15.13753513    05
Epoch (UTC): 25 May 2026 11:16:48
Eccentricity: 0.0007924
inclination: 97.4432°
perigee height: 519 km
apogee height: 530 km
right ascension of ascending node: 313.7010°
argument of perigee: 152.3761°
revolutions per day: 15.13753513
mean anomaly at epoch: 207.7893°

The dashed part of the orbit path shows where the satellite is in the earth's shadow,  

DLR